Location: College Park
(38.9810°N, 76.9370°W)
Time: 01:13:29
(UTC-04:00)

Hubble Space Telescope - Pass Details

Date: 11 January 2018
Orbit: 537 x 541 km, 28.5° (Epoch: 21 July)

Event Time Altitude Azimuth Distance (km) Brightness Sun altitude
Exits shadow 05:38:19 11° 204° (SSW) 1,699 3.2 -20.5°
Maximum altitude 05:38:49 12° 196° (SSW) 1,686 3.2 -20.4°
Drops below altitude 10° 05:40:15 10° 176° (S) 1,784 3.6 -20.1°
Sets 05:43:55 0° 143° (SE) 2,671 5.1 -19.5°
